CZ-6A DEB, 54422

Orbit data source: Space-Track

CZ-6A DEB, 54422 is space debris in SSO originally from a launch on Fri, 11 Nov 2022 UTC launched from the Taiyaun Space Center, China (TSC). Debris objects in space refer to the collection of defunct objects orbiting the Earth. Examples of debris include non-operational satellites, rocket bodies, and fragments generated from explosions, collisions, or faulty payload assembly.

Loading next visibility...
Identifier
54422, 2022-151EW
Orbit
SSO
Country
Flag of CNCN / PRC
Related business
Manufacturer
SAST
Mission
Spacecraft
Bus & Motor
Unknown
Mass
Unknown
Launch date (UTC)
2022-11-11 (4 years ago)
Launch vehicle
Unknown
Launch site
Taiyaun Space Center, China (TSC)
Object type
Payload
Rocket body
Debris
Shape & HBR
Unknown shape, 0.5 m
Radar Cross Section
Medium (>0.1 m² and <1 m²)

Expand to show TLE details & history
Last TLE update: 10 hours ago

TLE from 10 hours ago
0 CZ-6A DEB
1 54422U 22151EW  26265.53607536  .00000348  00000-0  19066-3 0  9994
2 54422  98.8064 280.2165 0038286  76.8940 283.6504 14.17808339199426
Epoch: 2026-09-22T12:51Z
TLE epoch observation values (Epoch: 2026-09-22T12:51:56.911Z)
Latitude
0.00003°
Longitude
85.82922°
Altitude
829.266 km
Speed
7.442 km/s
True Right ascension
18h 40m 51s
True Declination
0° 00' 00"
Sunlit
Object was in daylight at epoch
Visualization orbit readout
Latitude
Unknown
Longitude
Unknown
Altitude
Unknown
Speed
Unknown
Apparent Right ascension
Unknown
Apparent Declination
Unknown
Sunlit
N/A
Visualization observer readout
Local Sidereal Time
15:37:33
Azimuth
Unknown
Elevation
Unknown
Doppler factor
Unknown
Orbital elements
Apogee altitude
857.537 km
Perigee altitude
802.344 km
Semi-major axis
7,208.077 km
Eccentricity
0.00383
Inclination
98.8064°
RAAN
280.2165°
Arg. of periapsis
76.894°
True anomaly
283.22359°
Mean anomaly
283.6504°
Eccentric anomaly
283.43704°
Mean motion
3.54661 °/min
Orbital period
101.51 mins
BSTAR
0.00019066
Loading maneuver chart data...
Computing Atmospheric mass density...
Loading historical data...
Loading historical data...
Loading historical data...
Loading historical data...
Loading historical data...
Loading historical data...
Loading historical data...

Documentation

Showing up to 5 results
|